Torna al catalogo

OPS 4682 DEB

AttivoPO
NORAD 51504·DEBRIS·🇺🇸 United States

Lanciato Apr 3, 1965 da Vandenberg Space Force Base

Loading…

Prossimi Passaggi (prossime 24 ore)

TLE

AggiornatoSource: Space-Track

Epoca: Sep 14, 2026, 13:24 UTC

1 51504U 65027GQ  26257.55866891  .00000268  00000-0  89612-3 0  9990
2 51504  90.2406 356.9762 0030106 230.6463 129.1990 12.97537248533280

Traccia OPS 4682 DEB in tempo reale con AllMySat

Download on the App Store